STARLINK-31510, 59575

Orbit data source: Space-Track

STARLINK-31510, 59575 is a payload satellite owned by SpaceX/Seattle (US) in LEO that was launched on Tue, 23 Apr 2024 UTC via an FALCON 9 launch vehicle from the Air Force Eastern Test Range (AFETR). Payload-class satellites include a variety of spacecraft equipped with specific instruments for various scientific and technological missions. These include communications satellites like Starlink; space stations such as the ISS; scientific satellites like the Hubble; Earth observation satellites from companies like Planet Labs, Umbra, and HawkEye 360; GPS; miniature CubeSats for education and research; and military/defense satellites.

Loading next visibility...
Identifier
59575, 2024-076M
Orbit
LEO
Country
Flag of USUS
Related business
Manufacturer
SpaceX/Seattle
Mission
Operational Commercial Communications
Bus & Motor
STARLINK V2M, Unknown motor
Mass
730 kg wet, ~700 kg dry
Launch date (UTC)
2024-04-23 (2 years ago)
Launch vehicle
FALCON 9
Launch site
Air Force Eastern Test Range (AFETR)
Object type
Payload
Rocket body
Debris
Shape & HBR
Box + 2 Pan, 17.7 m
Radar Cross Section
33.884 m², Large (>1 m²)

Expand to show TLE details & history
Last TLE update: 1 day ago

TLE from 1 day ago
0 STARLINK-31510
1 59575U 24076M   25348.43868145  .00002406  00000-0  96941-4 0  9996
2 59575  42.9964 127.0920 0001240 276.1107  83.9603 15.27570224 93500
Epoch: 2025-12-14T10:31Z
TLE epoch observation values (Epoch: 2025-12-14T10:31:42.077Z)
Latitude
-0.00003°
Longitude
-114.18494°
Altitude
482.764 km
Speed
7.626 km/s
True Right ascension
08h 28m 22s
True Declination
0° 00' 00"
Sunlit
Object was in full shadow at epoch
Visualization orbit readout
Latitude
Unknown
Longitude
Unknown
Altitude
Unknown
Speed
Unknown
Apparent Right ascension
Unknown
Apparent Declination
Unknown
Sunlit
N/A
Visualization observer readout
Local Sidereal Time
13:21:50
Azimuth
Unknown
Elevation
Unknown
Doppler factor
Unknown
Orbital elements
Apogee altitude
485.875 km
Perigee altitude
484.173 km
Semi-major axis
6,863.161 km
Eccentricity
0.00012
Inclination
42.9964°
RAAN
127.092°
Arg. of periapsis
276.1107°
True anomaly
83.97443°
Mean anomaly
83.9603°
Eccentric anomaly
83.96737°
Mean motion
3.81731 °/min
Orbital period
94.31 mins
BSTAR
0.000096941
Loading maneuver chart data...
Computing Atmospheric mass density...
Loading historical data...
Loading historical data...
Loading historical data...
Loading historical data...
Loading historical data...
Loading historical data...
Loading historical data...

Documentation

Showing up to 5 results
|